• In United Kingdom
  • List of Countries
  • For 7 days
  • Water Temperature
  • Satellite Maps
  • Weather Map
  • Weather Widgets
  • user-avatar
    Login

    Hourly Weather Rawson

    Today, 18 July, Wednesday

    Time Temperature Precipitation Wind Pressure Humidity
    00:00 +7°C° 0.1 mm 2 mps 768 mmHg 87%
    01:00 +7°C° 0.1 mm 2 mps 768 mmHg 88%
    02:00 +5°C° 0.1 mm 3 mps 768 mmHg 89%
    03:00 +5°C° 0.1 mm 3 mps 768 mmHg 88%
    04:00 +5°C° 0.1 mm 4 mps 768 mmHg 88%
    05:00 +5°C° 0.1 mm 5 mps 768 mmHg 87%
    06:00 +5°C° 0.1 mm 5 mps 769 mmHg 88%
    07:00 +5°C° 0.1 mm 5 mps 769 mmHg 88%
    08:00 +5°C° 0.1 mm 5 mps 769 mmHg 89%
    09:00 +6°C° 0.1 mm 5 mps 769 mmHg 86%
    10:00 +6°C° 0.1 mm 5 mps 769 mmHg 83%
    11:00 +7°C° 0.1 mm 5 mps 770 mmHg 81%
    12:00 +8°C° 0.1 mm 5 mps 769 mmHg 79%
    13:00 +8°C° 0.1 mm 5 mps 769 mmHg 77%
    14:00 +8°C° 0.1 mm 5 mps 769 mmHg 75%
    15:00 +8°C° 0.3 mm 5 mps 769 mmHg 78%
    16:00 +7°C° 0.3 mm 5 mps 770 mmHg 81%
    17:00 +7°C° 0.3 mm 5 mps 770 mmHg 84%
    18:00 +7°C° 0.5 mm 5 mps 770 mmHg 84%
    19:00 +7°C° 0.5 mm 6 mps 771 mmHg 85%
    20:00 +5°C° 0.5 mm 6 mps 771 mmHg 86%
    21:00 +5°C° 0.3 mm 6 mps 771 mmHg 85%
    22:00 +5°C° 0.3 mm 6 mps 771 mmHg 85%
    23:00 +5°C° 0.3 mm 6 mps 772 mmHg 85%

    Tomorrow, 19 July, Thursday

    Time Temperature Precipitation Wind Pressure Humidity
    00:00 +5°C° 0.3 mm 6 mps 772 mmHg 84%
    01:00 +5°C° 0.3 mm 6 mps 772 mmHg 84%
    02:00 +5°C° 0.3 mm 6 mps 772 mmHg 83%
    03:00 +5°C° 0.3 mm 6 mps 772 mmHg 83%
    04:00 +5°C° 0.3 mm 7 mps 772 mmHg 83%
    05:00 +5°C° 0.3 mm 7 mps 772 mmHg 84%
    06:00 +5°C° 0.2 mm 7 mps 772 mmHg 83%
    07:00 +5°C° 0.2 mm 7 mps 772 mmHg 82%
    08:00 +5°C° 0.2 mm 7 mps 773 mmHg 81%
    09:00 +5°C° 0.2 mm 7 mps 773 mmHg 78%
    10:00 +6°C° 0.2 mm 7 mps 773 mmHg 75%
    11:00 +6°C° 0.2 mm 8 mps 773 mmHg 72%
    12:00 +6°C° 0.1 mm 7 mps 773 mmHg 71%
    13:00 +6°C° 0.1 mm 7 mps 772 mmHg 69%
    14:00 +8°C° 0.1 mm 7 mps 772 mmHg 68%
    15:00 +6°C° 0 mm 7 mps 772 mmHg 70%
    16:00 +7°C° 0 mm 6 mps 772 mmHg 72%
    17:00 +5°C° 0 mm 6 mps 772 mmHg 74%
    18:00 +5°C° 0 mm 6 mps 772 mmHg 76%
    19:00 +5°C° 0 mm 6 mps 772 mmHg 79%
    20:00 +5°C° 0 mm 6 mps 772 mmHg 81%
    21:00 +5°C° 0 mm 5 mps 772 mmHg 82%
    22:00 +5°C° 0 mm 5 mps 772 mmHg 83%
    23:00 +5°C° 0 mm 5 mps 772 mmHg 85%

    Day after tomorrow, 20 July, Friday

    Time Temperature Precipitation Wind Pressure Humidity
    00:00 +3°C° 0 mm 5 mps 772 mmHg 85%
    01:00 +4°C° 0 mm 4 mps 771 mmHg 85%
    02:00 +4°C° 0 mm 4 mps 771 mmHg 85%
    03:00 +3°C° 0 mm 4 mps 770 mmHg 85%
    04:00 +3°C° 0 mm 4 mps 770 mmHg 85%
    05:00 +3°C° 0 mm 3 mps 770 mmHg 85%
    06:00 +3°C° 0 mm 3 mps 770 mmHg 85%
    07:00 +3°C° 0 mm 3 mps 769 mmHg 86%
    08:00 +2°C° 0 mm 3 mps 769 mmHg 86%
    09:00 +3°C° 0 mm 3 mps 769 mmHg 81%
    10:00 +4°C° 0 mm 3 mps 769 mmHg 75%
    11:00 +6°C° 0 mm 2 mps 768 mmHg 70%
    12:00 +7°C° 0 mm 2 mps 768 mmHg 67%
    13:00 +7°C° 0 mm 2 mps 767 mmHg 64%
    14:00 +8°C° 0 mm 1 mps 766 mmHg 62%
    15:00 +7°C° 0 mm 2 mps 765 mmHg 63%
    16:00 +7°C° 0 mm 2 mps 765 mmHg 64%
    17:00 +7°C° 0 mm 2 mps 764 mmHg 65%
    18:00 +6°C° 0 mm 2 mps 764 mmHg 68%
    19:00 +5°C° 0 mm 3 mps 763 mmHg 71%
    20:00 +4°C° 0 mm 3 mps 763 mmHg 74%
    21:00 +4°C° 0 mm 3 mps 763 mmHg 76%
    22:00 +4°C° 0 mm 4 mps 762 mmHg 77%
    23:00 +3°C° 0 mm 4 mps 762 mmHg 79%

    21 July, Saturday

    Time Temperature Precipitation Wind Pressure Humidity
    00:00 +3°C° 0 mm 4 mps 761 mmHg 80%
    01:00 +3°C° 0 mm 4 mps 761 mmHg 81%
    02:00 +3°C° 0 mm 4 mps 760 mmHg 82%
    03:00 +2°C° 0 mm 5 mps 759 mmHg 82%
    04:00 +1°C° 0 mm 5 mps 759 mmHg 82%
    05:00 +1°C° 0 mm 5 mps 758 mmHg 82%
    06:00 +1°C° 0 mm 5 mps 757 mmHg 79%
    07:00 +1°C° 0 mm 5 mps 757 mmHg 76%
    08:00 +1°C° 0 mm 5 mps 757 mmHg 73%
    09:00 +3°C° 0 mm 5 mps 756 mmHg 64%
    10:00 +5°C° 0 mm 5 mps 756 mmHg 56%
    11:00 +7°C° 0 mm 5 mps 755 mmHg 47%
    12:00 +8°C° 0 mm 5 mps 755 mmHg 42%
    13:00 +10°C° 0 mm 4 mps 754 mmHg 36%
    14:00 +11°C° 0 mm 4 mps 753 mmHg 30%
    15:00 +10°C° 0 mm 4 mps 753 mmHg 34%
    16:00 +10°C° 0 mm 3 mps 753 mmHg 37%
    17:00 +9°C° 0 mm 3 mps 753 mmHg 40%
    18:00 +9°C° 0 mm 3 mps 753 mmHg 44%
    19:00 +7°C° 0 mm 4 mps 753 mmHg 47%
    20:00 +7°C° 0 mm 4 mps 754 mmHg 51%
    21:00 +7°C° 0 mm 4 mps 754 mmHg 53%
    22:00 +6°C° 0 mm 4 mps 754 mmHg 54%
    23:00 +7°C° 0 mm 3 mps 754 mmHg 56%

    22 July, Sunday

    Time Temperature Precipitation Wind Pressure Humidity
    00:00 +7°C° 0 mm 3 mps 754 mmHg 57%
    01:00 +7°C° 0 mm 3 mps 754 mmHg 58%
    02:00 +7°C° 0 mm 3 mps 754 mmHg 59%
    03:00 +5°C° 0 mm 3 mps 755 mmHg 61%
    04:00 +5°C° 0 mm 3 mps 755 mmHg 63%
    05:00 +5°C° 0 mm 3 mps 755 mmHg 64%
    06:00 +5°C° 0 mm 4 mps 756 mmHg 65%
    07:00 +5°C° 0 mm 4 mps 757 mmHg 66%
    08:00 +5°C° 0 mm 5 mps 757 mmHg 67%
    09:00 +4°C° 0.2 mm 6 mps 758 mmHg 68%
    10:00 +4°C° 0.2 mm 6 mps 759 mmHg 68%
    11:00 +4°C° 0.2 mm 7 mps 759 mmHg 69%
    12:00 +5°C° 0.1 mm 8 mps 760 mmHg 66%
    13:00 +5°C° 0.1 mm 9 mps 760 mmHg 64%
    14:00 +5°C° 0.1 mm 9 mps 760 mmHg 61%
    15:00 +3°C° 0 mm 10 mps 761 mmHg 58%
    16:00 +3°C° 0 mm 10 mps 761 mmHg 54%
    17:00 +2°C° 0 mm 10 mps 762 mmHg 51%
    18:00 +2°C° 0.6 mm 10 mps 762 mmHg 58%
    19:00 +2°C° 0.6 mm 11 mps 763 mmHg 65%
    20:00 +2°C° 0.6 mm 11 mps 764 mmHg 72%
    21:00 +2°C° 2.1 mm 11 mps 765 mmHg 75%
    22:00 +2°C° 2.1 mm 11 mps 765 mmHg 78%
    23:00 +1°C° 2.1 mm 11 mps 766 mmHg 81%

    23 July, Monday

    Time Temperature Precipitation Wind Pressure Humidity
    00:00 +1°C° 1.4 mm 10 mps 766 mmHg 80%
    01:00 +1°C° 1.4 mm 10 mps 767 mmHg 80%
    02:00 +1°C° 1.4 mm 9 mps 767 mmHg 80%
    03:00 +1°C° 0.1 mm 8 mps 768 mmHg 79%
    04:00 0°C° 0.1 mm 8 mps 769 mmHg 79%
    05:00 0°C° 0.1 mm 7 mps 769 mmHg 79%
    06:00 0°C° 0 mm 7 mps 770 mmHg 78%
    07:00 -1°C° 0 mm 6 mps 771 mmHg 78%
    08:00 -1°C° 0 mm 6 mps 772 mmHg 77%
    09:00 +1°C° 0 mm 6 mps 772 mmHg 71%
    10:00 +2°C° 0 mm 6 mps 772 mmHg 65%
    11:00 +3°C° 0 mm 6 mps 772 mmHg 59%
    12:00 +4°C° 0 mm 6 mps 772 mmHg 54%
    13:00 +4°C° 0 mm 6 mps 772 mmHg 48%
    14:00 +5°C° 0 mm 6 mps 772 mmHg 42%
    15:00 +5°C° 0 mm 6 mps 772 mmHg 43%
    16:00 +4°C° 0 mm 6 mps 772 mmHg 44%
    17:00 +4°C° 0 mm 6 mps 772 mmHg 44%
    18:00 +3°C° 0 mm 6 mps 772 mmHg 46%
    19:00 +3°C° 0 mm 6 mps 772 mmHg 48%
    20:00 +2°C° 0 mm 6 mps 772 mmHg 51%
    21:00 +2°C° 0 mm 6 mps 772 mmHg 52%
    22:00 +2°C° 0 mm 6 mps 772 mmHg 54%
    23:00 +1°C° 0 mm 6 mps 772 mmHg 55%
    Show more